TimeEST,TemperatureF,Dew PointF,Humidity,Sea Level PressureIn,VisibilityMPH,Wind Direction,Wind SpeedMPH,Gust SpeedMPH,PrecipitationIn,Events,Conditions,WindDirDegrees,DateUTC
12:15 AM,30.2,14.0,51,29.79,10.0,NW,8.1,17.3,N/A,,Clear,320,2013-03-04 05:15:00
12:35 AM,30.2,14.0,51,29.79,10.0,NW,8.1,16.1,N/A,,Clear,310,2013-03-04 05:35:00
12:55 AM,30.2,14.0,51,29.79,10.0,West,10.4,19.6,N/A,,Clear,280,2013-03-04 05:55:00
1:15 AM,30.2,14.0,51,29.79,10.0,NW,5.8,-,N/A,,Clear,310,2013-03-04 06:15:00
1:35 AM,30.2,14.0,51,29.79,10.0,WNW,6.9,-,N/A,,Clear,300,2013-03-04 06:35:00
1:55 AM,30.2,14.0,51,29.79,10.0,NW,9.2,16.1,N/A,,Clear,310,2013-03-04 06:55:00
2:15 AM,30.2,14.0,51,29.79,10.0,WNW,9.2,17.3,N/A,,Clear,300,2013-03-04 07:15:00
2:35 AM,30.2,15.8,55,29.79,10.0,NW,8.1,18.4,N/A,,Clear,310,2013-03-04 07:35:00
2:55 AM,28.4,15.8,59,29.79,10.0,NNW,5.8,-,N/A,,Clear,330,2013-03-04 07:55:00
3:15 AM,30.2,15.8,55,29.78,10.0,WNW,8.1,16.1,N/A,,Clear,300,2013-03-04 08:15:00
3:35 AM,30.2,17.6,60,29.78,10.0,NW,11.5,18.4,N/A,,Clear,310,2013-03-04 08:35:00
3:55 AM,30.2,17.6,60,29.79,10.0,NW,13.8,20.7,N/A,,Clear,310,2013-03-04 08:55:00
4:15 AM,30.2,17.6,60,29.79,10.0,NW,9.2,-,N/A,,Clear,320,2013-03-04 09:15:00
4:35 AM,30.2,17.6,60,29.79,10.0,NW,12.7,18.4,N/A,,Scattered Clouds,310,2013-03-04 09:35:00
4:55 AM,30.2,17.6,60,29.80,10.0,NW,10.4,-,N/A,,Mostly Cloudy,310,2013-03-04 09:55:00
5:15 AM,30.2,17.6,60,29.81,10.0,WNW,5.8,-,N/A,,Overcast,290,2013-03-04 10:15:00
5:35 AM,30.2,17.6,60,29.81,10.0,NNW,10.4,-,N/A,,Overcast,330,2013-03-04 10:35:00
6:45 AM,28.4,19.4,69,29.83,10.0,NW,8.1,18.4,N/A,,Overcast,320,2013-03-04 11:45:00
7:45 AM,28.4,19.4,69,29.84,10.0,NNW,6.9,17.3,N/A,,Mostly Cloudy,330,2013-03-04 12:45:00
8:45 AM,30.2,17.6,60,29.83,10.0,North,17.3,24.2,N/A,,Mostly Cloudy,350,2013-03-04 13:45:00
9:45 AM,33.8,19.4,56,29.83,10.0,NW,10.4,25.3,N/A,,Scattered Clouds,320,2013-03-04 14:45:00
10:45 AM,35.6,19.4,52,29.83,10.0,NW,13.8,25.3,N/A,,Scattered Clouds,310,2013-03-04 15:45:00
11:45 AM,37.4,17.6,45,29.82,10.0,NNW,10.4,18.4,N/A,,Scattered Clouds,330,2013-03-04 16:45:00
12:45 PM,39.2,17.6,42,29.81,15.0,NW,15.0,25.3,N/A,,Partly Cloudy,320,2013-03-04 17:45:00
1:45 PM,41.0,17.6,39,29.79,10.0,NW,16.1,31.1,N/A,,Partly Cloudy,310,2013-03-04 18:45:00
2:45 PM,39.2,17.6,42,29.80,15.0,North,18.4,25.3,N/A,,Partly Cloudy,350,2013-03-04 19:45:00
3:45 PM,39.2,17.6,42,29.80,10.0,NW,13.8,24.2,N/A,,Partly Cloudy,320,2013-03-04 20:45:00
4:45 PM,39.2,17.6,42,29.82,10.0,NNW,15.0,27.6,N/A,,Partly Cloudy,340,2013-03-04 21:45:00
5:45 PM,37.4,15.8,41,29.84,10.0,NNW,16.1,24.2,N/A,,Partly Cloudy,330,2013-03-04 22:45:00
6:45 PM,35.6,15.8,44,29.86,10.0,North,8.1,18.4,N/A,,Scattered Clouds,350,2013-03-04 23:45:00
8:45 PM,33.8,17.6,52,29.89,10.0,North,6.9,16.1,N/A,,Partly Cloudy,350,2013-03-05 01:45:00
9:45 PM,33.8,17.6,52,29.91,7.0,NNW,11.5,17.3,N/A,,Overcast,340,2013-03-05 02:45:00
9:55 PM,37.4,17.6,45,29.91,10.0,NW,13.8,19.6,N/A,,Overcast,310,2013-03-05 02:55:00
10:15 PM,35.6,19.4,52,29.92,10.0,NNW,10.4,20.7,N/A,,Overcast,340,2013-03-05 03:15:00
10:35 PM,35.6,19.4,52,29.92,10.0,NNW,13.8,19.6,N/A,,Overcast,330,2013-03-05 03:35:00
10:55 PM,35.6,19.4,52,29.92,10.0,NW,8.1,-,N/A,,Overcast,320,2013-03-05 03:55:00
11:15 PM,35.6,19.4,52,29.92,10.0,NNW,16.1,21.9,N/A,,Scattered Clouds,330,2013-03-05 04:15:00
11:35 PM,35.6,19.4,52,29.92,10.0,NW,8.1,16.1,N/A,,Clear,320,2013-03-05 04:35:00
11:55 PM,35.6,19.4,52,29.92,10.0,NW,10.4,20.7,N/A,,Clear,320,2013-03-05 04:55:00